• In Belarus
  • List of Countries
  • For 7 days
  • Water Temperature
  • Satellite Maps
  • Weather Map
  • Weather Widgets
  • user-avatar
    Login

    Hourly Weather La Paz

    Today, 25 March, Monday

    Time Temperature Precipitation Wind Pressure Humidity
    00:00 +18°C° 0 mm 2 mps 700 mmHg 81%
    01:00 +17°C° 0 mm 2 mps 699 mmHg 83%
    02:00 +18°C° 0 mm 1 mps 699 mmHg 84%
    03:00 +16°C° 0 mm 1 mps 699 mmHg 86%
    04:00 +16°C° 0 mm 1 mps 699 mmHg 83%
    05:00 +16°C° 0 mm 1 mps 699 mmHg 81%
    06:00 +16°C° 0 mm 1 mps 699 mmHg 79%
    07:00 +20°C° 0 mm 1 mps 700 mmHg 67%
    08:00 +24°C° 0 mm 2 mps 700 mmHg 55%
    09:00 +27°C° 0 mm 2 mps 701 mmHg 43%
    10:00 +29°C° 0 mm 2 mps 701 mmHg 38%
    11:00 +31°C° 0 mm 2 mps 701 mmHg 34%
    12:00 +34°C° 0 mm 3 mps 700 mmHg 29%
    13:00 +34°C° 0 mm 3 mps 700 mmHg 30%
    14:00 +34°C° 0 mm 3 mps 699 mmHg 30%
    15:00 +34°C° 0 mm 3 mps 699 mmHg 31%
    16:00 +31°C° 0 mm 3 mps 698 mmHg 36%
    17:00 +29°C° 0 mm 2 mps 698 mmHg 42%
    18:00 +28°C° 0 mm 2 mps 698 mmHg 47%
    19:00 +26°C° 0 mm 2 mps 698 mmHg 58%
    20:00 +24°C° 0 mm 2 mps 699 mmHg 70%
    21:00 +23°C° 0 mm 2 mps 699 mmHg 81%
    22:00 +21°C° 0.2 mm 2 mps 699 mmHg 86%
    23:00 +21°C° 0.2 mm 2 mps 700 mmHg 90%

    Tomorrow, 26 March, Tuesday

    Time Temperature Precipitation Wind Pressure Humidity
    00:00 +21°C° 0.2 mm 2 mps 700 mmHg 94%
    01:00 +21°C° 0 mm 2 mps 699 mmHg 93%
    02:00 +20°C° 0 mm 2 mps 699 mmHg 93%
    03:00 +20°C° 0 mm 2 mps 699 mmHg 92%
    04:00 +20°C° 0 mm 2 mps 699 mmHg 91%
    05:00 +20°C° 0 mm 2 mps 699 mmHg 91%
    06:00 +20°C° 0 mm 2 mps 699 mmHg 91%
    07:00 +22°C° 0 mm 3 mps 700 mmHg 82%
    08:00 +24°C° 0 mm 3 mps 700 mmHg 72%
    09:00 +26°C° 0 mm 4 mps 701 mmHg 63%
    10:00 +28°C° 0 mm 4 mps 701 mmHg 55%
    11:00 +30°C° 0 mm 4 mps 701 mmHg 47%
    12:00 +33°C° 0 mm 4 mps 700 mmHg 39%
    13:00 +33°C° 0 mm 4 mps 700 mmHg 39%
    14:00 +33°C° 0 mm 5 mps 699 mmHg 39%
    15:00 +33°C° 0 mm 5 mps 698 mmHg 39%
    16:00 +30°C° 0 mm 4 mps 698 mmHg 46%
    17:00 +28°C° 0 mm 4 mps 698 mmHg 53%
    18:00 +26°C° 0 mm 3 mps 698 mmHg 59%
    19:00 +25°C° 0.1 mm 3 mps 699 mmHg 68%
    20:00 +24°C° 0.1 mm 3 mps 699 mmHg 76%
    21:00 +21°C° 0.1 mm 3 mps 700 mmHg 84%
    22:00 +21°C° 0 mm 3 mps 700 mmHg 85%
    23:00 +20°C° 0 mm 3 mps 700 mmHg 87%

    Day after tomorrow, 27 March, Wednesday

    Time Temperature Precipitation Wind Pressure Humidity
    00:00 +20°C° 0 mm 3 mps 700 mmHg 89%
    01:00 +20°C° 0 mm 3 mps 699 mmHg 89%
    02:00 +19°C° 0 mm 3 mps 699 mmHg 89%
    03:00 +19°C° 0 mm 3 mps 699 mmHg 90%
    04:00 +19°C° 0 mm 3 mps 699 mmHg 89%
    05:00 +20°C° 0 mm 4 mps 699 mmHg 89%
    06:00 +20°C° 0 mm 4 mps 699 mmHg 89%
    07:00 +21°C° 0 mm 4 mps 700 mmHg 82%
    08:00 +22°C° 0 mm 5 mps 701 mmHg 76%
    09:00 +25°C° 0 mm 5 mps 701 mmHg 69%
    10:00 +26°C° 0 mm 5 mps 701 mmHg 62%
    11:00 +28°C° 0 mm 5 mps 701 mmHg 55%
    12:00 +30°C° 0 mm 6 mps 701 mmHg 47%
    13:00 +29°C° 0 mm 6 mps 700 mmHg 48%
    14:00 +29°C° 0 mm 5 mps 699 mmHg 49%
    15:00 +28°C° 0 mm 5 mps 698 mmHg 50%
    16:00 +27°C° 0 mm 5 mps 699 mmHg 56%
    17:00 +26°C° 0 mm 5 mps 699 mmHg 62%
    18:00 +25°C° 0 mm 4 mps 699 mmHg 68%
    19:00 +23°C° 0 mm 4 mps 699 mmHg 75%
    20:00 +21°C° 0 mm 4 mps 700 mmHg 81%
    21:00 +20°C° 0 mm 4 mps 700 mmHg 88%
    22:00 +20°C° 0 mm 4 mps 700 mmHg 88%
    23:00 +20°C° 0 mm 4 mps 700 mmHg 89%

    28 March, Thursday

    Time Temperature Precipitation Wind Pressure Humidity
    00:00 +20°C° 0 mm 4 mps 700 mmHg 89%
    01:00 +19°C° 0 mm 4 mps 700 mmHg 89%
    02:00 +19°C° 0 mm 3 mps 699 mmHg 89%
    03:00 +19°C° 0 mm 3 mps 699 mmHg 89%
    04:00 +19°C° 0 mm 3 mps 699 mmHg 88%
    05:00 +18°C° 0 mm 3 mps 700 mmHg 88%
    06:00 +18°C° 0 mm 3 mps 700 mmHg 88%
    07:00 +20°C° 0 mm 3 mps 701 mmHg 77%
    08:00 +22°C° 0 mm 4 mps 701 mmHg 67%
    09:00 +25°C° 0 mm 4 mps 702 mmHg 56%
    10:00 +27°C° 0 mm 4 mps 702 mmHg 49%
    11:00 +29°C° 0 mm 4 mps 701 mmHg 41%
    12:00 +32°C° 0 mm 4 mps 701 mmHg 34%
    13:00 +33°C° 0 mm 5 mps 700 mmHg 35%
    14:00 +33°C° 0 mm 5 mps 700 mmHg 36%
    15:00 +33°C° 0 mm 5 mps 699 mmHg 36%
    16:00 +30°C° 0 mm 4 mps 699 mmHg 46%
    17:00 +27°C° 0 mm 4 mps 699 mmHg 55%
    18:00 +25°C° 0 mm 3 mps 699 mmHg 64%
    19:00 +24°C° 0 mm 3 mps 700 mmHg 72%
    20:00 +22°C° 0 mm 3 mps 700 mmHg 80%
    21:00 +20°C° 0 mm 3 mps 701 mmHg 88%
    22:00 +20°C° 0 mm 3 mps 700 mmHg 89%
    23:00 +20°C° 0 mm 2 mps 700 mmHg 90%

    29 March, Friday

    Time Temperature Precipitation Wind Pressure Humidity
    00:00 +19°C° 0 mm 2 mps 700 mmHg 92%
    01:00 +19°C° 0 mm 2 mps 700 mmHg 92%
    02:00 +19°C° 0 mm 2 mps 699 mmHg 91%
    03:00 +19°C° 0 mm 2 mps 699 mmHg 91%
    04:00 +18°C° 0 mm 2 mps 699 mmHg 92%
    05:00 +18°C° 0 mm 2 mps 700 mmHg 92%
    06:00 +18°C° 0 mm 2 mps 700 mmHg 93%
    07:00 +20°C° 0 mm 2 mps 700 mmHg 77%
    08:00 +24°C° 0 mm 2 mps 701 mmHg 61%
    09:00 +26°C° 0 mm 2 mps 702 mmHg 46%
    10:00 +28°C° 0 mm 2 mps 701 mmHg 38%
    11:00 +31°C° 0 mm 3 mps 701 mmHg 31%
    12:00 +34°C° 0 mm 3 mps 700 mmHg 23%
    13:00 +34°C° 0 mm 3 mps 700 mmHg 22%
    14:00 +35°C° 0 mm 3 mps 699 mmHg 21%
    15:00 +35°C° 0 mm 3 mps 698 mmHg 20%
    16:00 +32°C° 0 mm 2 mps 698 mmHg 25%
    17:00 +30°C° 0 mm 2 mps 698 mmHg 30%
    18:00 +28°C° 0 mm 2 mps 698 mmHg 35%
    19:00 +26°C° 0 mm 2 mps 699 mmHg 44%
    20:00 +24°C° 0 mm 1 mps 699 mmHg 53%
    21:00 +22°C° 0 mm 1 mps 699 mmHg 62%
    22:00 +21°C° 0 mm 1 mps 699 mmHg 67%
    23:00 +20°C° 0 mm 1 mps 699 mmHg 73%

    30 March, Saturday

    Time Temperature Precipitation Wind Pressure Humidity
    00:00 +19°C° 0 mm 1 mps 699 mmHg 78%
    01:00 +19°C° 0 mm 1 mps 698 mmHg 79%
    02:00 +17°C° 0 mm 0 mps 698 mmHg 81%
    03:00 +17°C° 0 mm 0 mps 698 mmHg 83%
    04:00 +16°C° 0 mm 0 mps 698 mmHg 83%
    05:00 +16°C° 0 mm 0 mps 698 mmHg 83%
    06:00 +16°C° 0 mm 0 mps 699 mmHg 82%
    07:00 +21°C° 0 mm 0 mps 699 mmHg 67%
    08:00 +25°C° 0 mm 0 mps 700 mmHg 51%
    09:00 +30°C° 0 mm 0 mps 701 mmHg 36%
    10:00 +34°C° 0 mm 1 mps 701 mmHg 31%
    11:00 +36°C° 0 mm 1 mps 700 mmHg 26%
    12:00 +40°C° 0 mm 1 mps 700 mmHg 21%
    13:00 +39°C° 0 mm 1 mps 699 mmHg 21%
    14:00 +39°C° 0 mm 1 mps 698 mmHg 21%
    15:00 +38°C° 0 mm 2 mps 697 mmHg 21%
    16:00 +35°C° 0 mm 1 mps 697 mmHg 26%
    17:00 +32°C° 0 mm 1 mps 697 mmHg 31%
    18:00 +30°C° 0 mm 1 mps 697 mmHg 37%
    19:00 +29°C° 0 mm 1 mps 697 mmHg 42%
    20:00 +27°C° 0 mm 1 mps 698 mmHg 48%
    21:00 +24°C° 0 mm 0 mps 698 mmHg 54%
    22:00 +23°C° 0 mm 0 mps 698 mmHg 59%
    23:00 +22°C° 0 mm 0 mps 698 mmHg 63%
    Show more